OK1VCF-8 Weather Reports


time (UTC)temp
C
wind
direction
speed
KPH
gust
KPH
rain 1hr
cm
rain 24hr
cm
rain mn
cm
humidity
%
barometer
mb
20260509164431 18 0 0.0 0.0 0.00 0.00 0.00 48 1019.4
20260509163713 20 0 0.0 0.0 0.00 0.00 0.00 44 1019.3
20260509162954 21 0 0.0 0.0 0.00 0.00 0.00 42 1019.5
20260509162235 18 0 0.0 0.0 0.00 0.00 0.00 48 1019.4
20260509161516 17 0 0.0 0.0 0.00 0.00 0.00 50 1019.5
20260509160800 20 0 0.0 0.0 0.00 0.00 0.00 42 1020.0
20260509160040 22 0 0.0 0.0 0.00 0.00 0.00 39 1019.6
20260509155320 18 0 0.0 0.0 0.00 0.00 0.00 48 1019.6
20260509154317 18 0 0.0 0.0 0.00 0.00 0.00 49 1019.6
20260509153558 18 0 0.0 0.0 0.00 0.00 0.00 48 1019.6
20260509152837 18 0 0.0 0.0 0.00 0.00 0.00 48 1019.6
20260509152118 17 0 0.0 0.0 0.00 0.00 0.00 50 1019.7
20260509151357 17 0 0.0 0.0 0.00 0.00 0.00 48 1019.6
20260509150638 23 0 0.0 0.0 0.00 0.00 0.00 36 1019.5
20260509145916 23 0 0.0 0.0 0.00 0.00 0.00 38 1019.5
20260509145155 19 0 0.0 0.0 0.00 0.00 0.00 44 1019.6
20260509144436 18 0 0.0 0.0 0.00 0.00 0.00 46 1019.6
20260509143714 21 0 0.0 0.0 0.00 0.00 0.00 42 1019.6
20260509142952 21 0 0.0 0.0 0.00 0.00 0.00 42 1019.6
20260509142234 18 0 0.0 0.0 0.00 0.00 0.00 46 1019.7
20260509141515 17 0 0.0 0.0 0.00 0.00 0.00 48 1019.8
20260509140757 17 0 0.0 0.0 0.00 0.00 0.00 49 1020.2
20260509140036 18 0 0.0 0.0 0.00 0.00 0.00 46 1019.8
20260509135028 18 0 0.0 0.0 0.00 0.00 0.00 46 1020.0
20260509134309 18 0 0.0 0.0 0.00 0.00 0.00 46 1020.0
20260509133550 19 0 0.0 0.0 0.00 0.00 0.00 46 1019.9
20260509132829 19 0 0.0 0.0 0.00 0.00 0.00 45 1020.1
20260509132110 18 0 0.0 0.0 0.00 0.00 0.00 46 1020.4
20260509131348 19 0 0.0 0.0 0.00 0.00 0.00 44 1020.2
20260509130615 18 0 0.0 0.0 0.00 0.00 0.00 46 1020.4
20260509125838 18 0 0.0 0.0 0.00 0.00 0.00 48 1020.5
20260509125059 18 0 0.0 0.0 0.00 0.00 0.00 48 1020.5
20260509124320 18 0 0.0 0.0 0.00 0.00 0.00 50 1020.5
20260509123544 17 0 0.0 0.0 0.00 0.00 0.00 50 1020.6
20260509122752 17 0 0.0 0.0 0.00 0.00 0.00 50 1020.6
20260509121954 16 0 0.0 0.0 0.00 0.00 0.00 54 1020.6
20260509121154 16 0 0.0 0.0 0.00 0.00 0.00 54 1020.6
20260509120356 16 0 0.0 0.0 0.00 0.00 0.00 54 1020.8
20260509113816 17 0 0.0 0.0 0.00 0.00 0.00 50 1020.9
20260509113033 18 0 0.0 0.0 0.00 0.00 0.00 50 1021.0
20260509112259 18 0 0.0 0.0 0.00 0.00 0.00 48 1021.4
20260509111536 17 0 0.0 0.0 0.00 0.00 0.00 50 1021.1
20260509110817 18 0 0.0 0.0 0.00 0.00 0.00 50 1021.1
20260509110059 18 0 0.0 0.0 0.00 0.00 0.00 48 1021.2
20260509105335 18 0 0.0 0.0 0.00 0.00 0.00 49 1021.2
20260509104617 17 0 0.0 0.0 0.00 0.00 0.00 50 1021.3
20260509103857 17 0 0.0 0.0 0.00 0.00 0.00 48 1021.2
20260509103136 17 0 0.0 0.0 0.00 0.00 0.00 50 1021.3
20260509102416 17 0 0.0 0.0 0.00 0.00 0.00 48 1021.2
20260509101656 18 0 0.0 0.0 0.00 0.00 0.00 48 1021.2
20260509100937 18 0 0.0 0.0 0.00 0.00 0.00 47 1021.3
20260509095932 17 0 0.0 0.0 0.00 0.00 0.00 49 1021.4
20260509095211 18 0 0.0 0.0 0.00 0.00 0.00 48 1021.4
20260509094452 18 0 0.0 0.0 0.00 0.00 0.00 51 1021.3
20260509093732 17 0 0.0 0.0 0.00 0.00 0.00 52 1021.4
20260509093012 17 0 0.0 0.0 0.00 0.00 0.00 52 1021.2
20260509092251 17 0 0.0 0.0 0.00 0.00 0.00 54 1021.3
20260509091531 16 0 0.0 0.0 0.00 0.00 0.00 55 1021.2
20260509090811 16 0 0.0 0.0 0.00 0.00 0.00 58 1021.4
20260509090050 15 0 0.0 0.0 0.00 0.00 0.00 60 1021.2
20260509085328 15 0 0.0 0.0 0.00 0.00 0.00 61 1021.4
20260509084608 15 0 0.0 0.0 0.00 0.00 0.00 62 1021.2
20260509083849 15 0 0.0 0.0 0.00 0.00 0.00 60 1021.4
20260509083128 15 0 0.0 0.0 0.00 0.00 0.00 62 1021.4
20260509082408 15 0 0.0 0.0 0.00 0.00 0.00 63 1021.4
20260509081649 14 0 0.0 0.0 0.00 0.00 0.00 65 1021.4
20260509080643 14 0 0.0 0.0 0.00 0.00 0.00 66 1021.4
20260509075921 14 0 0.0 0.0 0.00 0.00 0.00 68 1021.4
20260509075201 14 0 0.0 0.0 0.00 0.00 0.00 70 1021.4
20260509074442 13 0 0.0 0.0 0.00 0.00 0.00 70 1021.4
20260509073723 13 0 0.0 0.0 0.00 0.00 0.00 70 1021.6
20260509073004 13 0 0.0 0.0 0.00 0.00 0.00 72 1021.5
20260509072243 12 0 0.0 0.0 0.00 0.00 0.00 74 1021.5
20260509071512 12 0 0.0 0.0 0.00 0.00 0.00 73 1021.6
20260509070733 12 0 0.0 0.0 0.00 0.00 0.00 73 1021.6
20260509065950 12 0 0.0 0.0 0.00 0.00 0.00 74 1021.5
20260509065212 12 0 0.0 0.0 0.00 0.00 0.00 74 1021.5
20260509064436 12 0 0.0 0.0 0.00 0.00 0.00 75 1021.4
20260509063657 12 0 0.0 0.0 0.00 0.00 0.00 76 1021.4
20260509062918 12 0 0.0 0.0 0.00 0.00 0.00 77 1021.4
20260509062138 12 0 0.0 0.0 0.00 0.00 0.00 76 1021.4
20260509061105 12 0 0.0 0.0 0.00 0.00 0.00 74 1021.4
20260509060325 12 0 0.0 0.0 0.00 0.00 0.00 75 1021.3
20260509055544 12 0 0.0 0.0 0.00 0.00 0.00 76 1021.4
20260509054818 12 0 0.0 0.0 0.00 0.00 0.00 76 1021.4
20260509054058 11 0 0.0 0.0 0.00 0.00 0.00 77 1021.3
20260509053339 11 0 0.0 0.0 0.00 0.00 0.00 78 1021.3
20260509052620 11 0 0.0 0.0 0.00 0.00 0.00 80 1021.4
20260509051901 11 0 0.0 0.0 0.00 0.00 0.00 80 1021.4
20260509051142 10 0 0.0 0.0 0.00 0.00 0.00 81 1021.2
20260509050425 10 0 0.0 0.0 0.00 0.00 0.00 82 1021.1
20260509045706 10 0 0.0 0.0 0.00 0.00 0.00 82 1021.0
20260509044947 10 0 0.0 0.0 0.00 0.00 0.00 82 1021.0
20260509044230 10 0 0.0 0.0 0.00 0.00 0.00 80 1021.0
20260509043512 12 0 0.0 0.0 0.00 0.00 0.00 74 1020.8
20260509042753 11 0 0.0 0.0 0.00 0.00 0.00 80 1020.9
20260509041744 9 0 0.0 0.0 0.00 0.00 0.00 84 1020.8
20260509041028 10 0 0.0 0.0 0.00 0.00 0.00 84 1020.6
20260509040310 10 0 0.0 0.0 0.00 0.00 0.00 87 1020.6
20260509035552 8 0 0.0 0.0 0.00 0.00 0.00 89 1020.6
20260509034834 8 0 0.0 0.0 0.00 0.00 0.00 89 1020.6
20260509034116 7 0 0.0 0.0 0.00 0.00 0.00 90 1020.8
20260509031932 7 0 0.0 0.0 0.00 0.00 0.00 90 1020.8
20260509031213 7 0 0.0 0.0 0.00 0.00 0.00 90 1020.8
20260509030456 7 0 0.0 0.0 0.00 0.00 0.00 89 1020.8
20260509025736 7 0 0.0 0.0 0.00 0.00 0.00 89 1020.8
20260509025017 7 0 0.0 0.0 0.00 0.00 0.00 88 1021.0
20260509024300 8 0 0.0 0.0 0.00 0.00 0.00 88 1020.9
20260509023541 7 0 0.0 0.0 0.00 0.00 0.00 88 1020.8
20260509022541 8 0 0.0 0.0 0.00 0.00 0.00 88 1020.8
20260509021822 8 0 0.0 0.0 0.00 0.00 0.00 88 1020.8
20260509021103 8 0 0.0 0.0 0.00 0.00 0.00 88 1020.8
20260509020345 8 0 0.0 0.0 0.00 0.00 0.00 88 1020.8
20260509015629 8 0 0.0 0.0 0.00 0.00 0.00 88 1021.0
20260509014910 8 0 0.0 0.0 0.00 0.00 0.00 87 1020.9
20260509014153 8 0 0.0 0.0 0.00 0.00 0.00 88 1021.0
20260509013434 8 0 0.0 0.0 0.00 0.00 0.00 88 1020.8
20260509012711 8 0 0.0 0.0 0.00 0.00 0.00 88 1020.9
20260509011938 8 0 0.0 0.0 0.00 0.00 0.00 88 1020.9
20260509011200 8 0 0.0 0.0 0.00 0.00 0.00 88 1020.9
20260509004934 8 0 0.0 0.0 0.00 0.00 0.00 86 1020.9
20260509004137 8 0 0.0 0.0 0.00 0.00 0.00 86 1020.8
20260509003041 8 0 0.0 0.0 0.00 0.00 0.00 86 1020.8
20260509002241 8 0 0.0 0.0 0.00 0.00 0.00 86 1020.8
20260509001440 8 0 0.0 0.0 0.00 0.00 0.00 86 1020.9
20260509000621 8 0 0.0 0.0 0.00 0.00 0.00 86 1020.9
20260508235824 9 0 0.0 0.0 0.00 0.00 0.00 84 1020.8
20260508235027 9 0 0.0 0.0 0.00 0.00 0.00 84 1020.9
20260508234231 9 0 0.0 0.0 0.00 0.00 0.00 84 1020.9
20260508233451 9 0 0.0 0.0 0.00 0.00 0.00 84 1020.9
20260508232714 10 0 0.0 0.0 0.00 0.00 0.00 83 1021.0
20260508231948 10 0 0.0 0.0 0.00 0.00 0.00 83 1021.0
20260508231230 10 0 0.0 0.0 0.00 0.00 0.00 82 1021.0
20260508230513 10 0 0.0 0.0 0.00 0.00 0.00 83 1021.0
20260508225756 10 0 0.0 0.0 0.00 0.00 0.00 83 1021.0
20260508225038 10 0 0.0 0.0 0.00 0.00 0.00 83 1021.0
20260508224320 10 0 0.0 0.0 0.00 0.00 0.00 82 1021.0
20260508223315 10 0 0.0 0.0 0.00 0.00 0.00 82 1021.0
20260508222558 10 0 0.0 0.0 0.00 0.00 0.00 82 1021.2
20260508221839 10 0 0.0 0.0 0.00 0.00 0.00 82 1021.2
20260508221122 10 0 0.0 0.0 0.00 0.00 0.00 82 1021.1
20260508220403 10 0 0.0 0.0 0.00 0.00 0.00 81 1021.2
20260508215646 10 0 0.0 0.0 0.00 0.00 0.00 81 1021.2
20260508214928 10 0 0.0 0.0 0.00 0.00 0.00 81 1021.0
20260508214210 10 0 0.0 0.0 0.00 0.00 0.00 80 1021.0
20260508213454 10 0 0.0 0.0 0.00 0.00 0.00 80 1021.0
20260508212736 10 0 0.0 0.0 0.00 0.00 0.00 81 1021.0
20260508212019 10 0 0.0 0.0 0.00 0.00 0.00 81 1021.0
20260508211300 10 0 0.0 0.0 0.00 0.00 0.00 80 1020.8
20260508210543 10 0 0.0 0.0 0.00 0.00 0.00 80 1021.0
20260508205826 10 0 0.0 0.0 0.00 0.00 0.00 82 1021.2
20260508205108 10 0 0.0 0.0 0.00 0.00 0.00 82 1021.0
20260508204108 10 0 0.0 0.0 0.00 0.00 0.00 82 1021.0
20260508203351 10 0 0.0 0.0 0.00 0.00 0.00 82 1020.8
20260508202634 9 0 0.0 0.0 0.00 0.00 0.00 82 1020.8
20260508201915 10 0 0.0 0.0 0.00 0.00 0.00 82 1020.6
20260508201158 10 0 0.0 0.0 0.00 0.00 0.00 82 1020.8
20260508200439 10 0 0.0 0.0 0.00 0.00 0.00 82 1020.7
20260508195721 10 0 0.0 0.0 0.00 0.00 0.00 82 1020.8
20260508195005 10 0 0.0 0.0 0.00 0.00 0.00 81 1020.6
20260508192828 10 0 0.0 0.0 0.00 0.00 0.00 80 1020.4
20260508192109 10 0 0.0 0.0 0.00 0.00 0.00 79 1020.4
20260508191352 11 0 0.0 0.0 0.00 0.00 0.00 78 1020.2
20260508190633 11 0 0.0 0.0 0.00 0.00 0.00 77 1020.2
20260508185915 11 0 0.0 0.0 0.00 0.00 0.00 78 1020.2
20260508184913 11 0 0.0 0.0 0.00 0.00 0.00 76 1020.0
20260508184153 11 0 0.0 0.0 0.00 0.00 0.00 76 1019.8
20260508183434 11 0 0.0 0.0 0.00 0.00 0.00 74 1019.6
20260508182715 12 0 0.0 0.0 0.00 0.00 0.00 74 1019.6
20260508181956 12 0 0.0 0.0 0.00 0.00 0.00 72 1019.6
20260508181237 12 0 0.0 0.0 0.00 0.00 0.00 72 1019.4
20260508180520 12 0 0.0 0.0 0.00 0.00 0.00 70 1019.2
20260508175800 12 0 0.0 0.0 0.00 0.00 0.00 70 1019.1
20260508175041 13 0 0.0 0.0 0.00 0.00 0.00 68 1019.2
20260508174322 13 0 0.0 0.0 0.00 0.00 0.00 66 1019.0
20260508173604 14 0 0.0 0.0 0.00 0.00 0.00 64 1019.1
20260508172844 14 0 0.0 0.0 0.00 0.00 0.00 64 1019.2
20260508172125 14 0 0.0 0.0 0.00 0.00 0.00 62 1019.0
20260508171406 14 0 0.0 0.0 0.00 0.00 0.00 62 1018.9
20260508170648 15 0 0.0 0.0 0.00 0.00 0.00 62 1018.8
20260508165643 15 0 0.0 0.0 0.00 0.00 0.00 60 1018.9